Location: Seattle
(47.6064°N, 122.3308°W)
Time: 01:42:34
(UTC-08:00)

Tiros 1 - Pass Details

Date: 30 November 2020
Orbit: 630 x 663 km, 48.4° (Epoch: 28 January)

Event Time Altitude Azimuth Distance (km) Brightness Sun altitude
Rises 17:24:54 0° 270° (W) 2,993 12.1 -10.6°
Reaches altitude 10° 17:27:15 10° 271° (W) 2,079 11.0 -11.0°
Maximum altitude 17:32:04 80° 359° (N) 673 7.2 -11.7°
Enters shadow 17:35:46 17° 86° (E) 1,655 8.6 -12.3°
Drops below altitude 10° 17:36:51 10° 87° (E) 2,064 - -12.5°
Sets 17:39:11 0° 88° (E) 2,970 - -12.9°
